    Orbital elements:
    2019 XC1                                                 Earth MOID = 0.0359 AU
    Epoch 2020 May 31.0 TT = JDT 2459000.5                  Bell
    M  69.01907              (2000.0)            P               Q
    n   0.45234440     Peri.  193.68915     -0.21552956     -0.95518932
    a   1.6806989      Node   269.04642     +0.91393578     -0.12414962
    e   0.3974635      Incl.   11.70708     +0.34390173     -0.26870102
    P   2.18           H   22.3           G   0.15           U   7
    Residuals in seconds of arc
    191203 T05  0.2+  0.7-    191203 K61  0.3-  0.4+    191204 204  0.1+  0.0
    191203 T05  0.2+  0.2-    191203 Z80  0.1-  0.0     191204 204  0.0   0.2-
    191203 T05  0.5+  0.0     191203 J69  0.2+  0.3-    191204 204  0.0   0.1-
    191203 T05  0.0   0.3-    191203 J69  0.3-  0.0     191204 K51  0.0   0.1-
    191203 L01  0.0   0.1-    191204 H21  0.3-  0.0     191204 K51  0.1+  0.0
    191203 L01  0.1-  0.5+    191204 H21  0.3-  0.1+    191204 K51  0.1-  0.1+
    191203 L01  0.3+  0.7+    191204 H21  0.2-  0.1-    191204 K88  0.3-  0.4+
    191203 L01  0.4+  1.0+    191204 H21  0.3-  0.1-    191204 K88  0.1-  0.6+
    191203 595  0.6-  0.3-    191204 H21  0.2-  0.1-    191204 K88  0.0   0.2+
    191203 595  0.0   0.5-    191204 F52  0.0   0.2-    191204 033  0.2-  0.2-
    191203 K88  0.3-  0.2+    191204 F52  0.0   0.1-    191204 033  0.0   0.2-
    191203 K88  0.6-  0.3+    191204 K61  0.6+  0.4+    191204 033  0.0   0.2-
    191203 K88  0.2-  0.4+    191204 K61  0.5+  0.3-    191204 246  0.0   0.3+
    191203 Z99  0.3-  0.2-    191204 K61  0.5+  0.1-    191204 246  0.0   0.2+
    191203 Z99  0.1-  0.3+    191204 113  0.1+  0.6-    191204 246  0.5-  0.0
    191203 Z99  0.2-  0.1-    191204 113  0.2+  0.1-    191204 246  0.1-  0.3-
    191203 Z80  0.1+  0.2-    191204 113  0.2+  0.0     191204 246  0.4+  0.5+
    191203 Z80  0.3+  0.8-    191204 587  0.3+  0.5-    191204 246  0.1-  0.1+
    191203 K61  0.2+  0.3+    191204 587  0.6+  0.4-    191204 K63  0.5-  0.2+
    191203 K61  0.2-  0.6+    191204 587  0.5+  0.5-    191205 K63  0.4-  0.2+
    191203 K61  0.4+  0.3+    191204 113  0.0   0.1-    191205 K63  0.3-  0.3+
    
    Ephemeris:
    2019 XC1                 a,e,i = 1.68, 0.40, 12                  q = 1.0127
    Date    TT    R. A. (2000) Decl.     Delta      r    Elong.  Phase     V
    2019 11 05    03 29 12.9 +63 10 55   0.2419  1.1659   131.4    39.6    21.1
    ...
    2019 11 20    04 55 12.6 +67 14 16   0.1599  1.0993   130.7    42.9    20.2
    ...
    2019 11 28    06 22 09.5 +65 38 58   0.1212  1.0699   130.8    44.2    19.6
    ...
    2019 12 04    07 37 35.2 +59 27 27   0.09584 1.0513   131.2    44.8    19.0
    2019 12 05    07 49 33.9 +57 46 36   0.09207 1.0485   131.3    45.0    18.9
    2019 12 06    08 01 09.7 +55 52 24   0.08847 1.0459   131.3    45.1    18.9
    ...
    2019 12 12    09 00 41.2 +39 15 30   0.07163 1.0318   129.7    47.3    18.4
    ...
    2019 12 20    09 53 17.3 +07 01 31   0.06795 1.0188   119.3    57.3    18.6
    ...
    2020 01 04    10 41 07.8 -32 13 44   0.1105  1.0138   103.0    70.9    20.0
    
    A. U. Tomatic                (C) Copyright 2019 MPC           M.P.E.C. 2019-X58
    


    Read MPEC 2019-X57 Read MPEC 2019-X59


    MPEC number:

    Enter an MPEC number in one of the following forms:

    • 1997-B01 (the full form)
    • J97B01 (the packed version of the full form)
    • B01 (the abbreviated form)